| time (UTC) | temp C | wind direction | speed KPH | gust KPH | rain 1hr cm | rain 24hr cm | rain mn cm | humidity % | barometer mb |
| 20260508170027 | 5 | 207 | 3.2 | 9.7 | 0.03 | 0.13 | 0.13 | 81 | 1011.3 |
| 20260508165526 | 5 | 250 | 1.6 | 9.7 | 0.03 | 0.13 | 0.13 | 82 | 1011.3 |
| 20260508165026 | 5 | 290 | 3.2 | 11.3 | 0.03 | 0.13 | 0.13 | 83 | 1011.3 |
| 20260508164527 | 5 | 253 | 1.6 | 8.0 | 0.03 | 0.13 | 0.13 | 84 | 1011.3 |
| 20260508164026 | 5 | 227 | 3.2 | 9.7 | 0.03 | 0.13 | 0.13 | 84 | 1011.4 |
| 20260508163525 | 4 | 248 | 3.2 | 12.9 | 0.03 | 0.13 | 0.13 | 85 | 1011.4 |
| 20260508163026 | 4 | 288 | 8.0 | 12.9 | 0.03 | 0.13 | 0.13 | 83 | 1011.5 |
| 20260508162529 | 3 | 244 | 3.2 | 9.7 | 0.03 | 0.13 | 0.13 | 84 | 1011.4 |
| 20260508162024 | 3 | 239 | 3.2 | 12.9 | 0.03 | 0.13 | 0.13 | 84 | 1011.5 |
| 20260508161540 | 3 | 214 | 3.2 | 12.9 | 0.03 | 0.13 | 0.13 | 82 | 1011.5 |
| 20260508161024 | 3 | 250 | 4.8 | 12.9 | 0.03 | 0.13 | 0.13 | 82 | 1011.5 |
| 20260508160525 | 3 | 193 | 4.8 | 12.9 | 0.00 | 0.10 | 0.10 | 80 | 1011.5 |
| 20260508160023 | 3 | 257 | 3.2 | 12.9 | 0.00 | 0.10 | 0.10 | 80 | 1011.6 |
| 20260508155523 | 3 | 261 | 6.4 | 12.9 | 0.00 | 0.10 | 0.10 | 81 | 1011.5 |
| 20260508155023 | 4 | 322 | 1.6 | 14.5 | 0.00 | 0.10 | 0.10 | 82 | 1011.5 |
| 20260508154525 | 4 | 234 | 3.2 | 14.5 | 0.00 | 0.10 | 0.10 | 81 | 1011.3 |
| 20260508154024 | 4 | 308 | 1.6 | 14.5 | 0.00 | 0.10 | 0.10 | 82 | 1011.4 |
| 20260508153523 | 4 | 197 | 1.6 | 14.5 | 0.00 | 0.10 | 0.10 | 83 | 1011.3 |
| 20260508153040 | 4 | 73 | 1.6 | 14.5 | 0.00 | 0.10 | 0.10 | 83 | 1011.2 |
| 20260508152521 | 3 | 208 | 4.8 | 14.5 | 0.00 | 0.10 | 0.10 | 84 | 1011.1 |
| 20260508152020 | 3 | 360 | 3.2 | 12.9 | 0.00 | 0.10 | 0.10 | 83 | 1011.2 |
| 20260508151520 | 3 | 360 | 3.2 | 12.9 | 0.00 | 0.10 | 0.10 | 82 | 1011.1 |
| 20260508151023 | 3 | 360 | 4.8 | 16.1 | 0.03 | 0.10 | 0.10 | 81 | 1011.1 |
| 20260508150520 | 3 | 360 | 3.2 | 16.1 | 0.03 | 0.10 | 0.10 | 78 | 1011.1 |
| 20260508150019 | 4 | 360 | 3.2 | 20.9 | 0.03 | 0.10 | 0.10 | 76 | 1011.2 |
| 20260508145519 | 5 | 360 | 6.4 | 20.9 | 0.03 | 0.10 | 0.10 | 73 | 1011.2 |
| 20260508145019 | 5 | 360 | 6.4 | 19.3 | 0.03 | 0.10 | 0.10 | 71 | 1011.1 |
| 20260508144518 | 5 | 292 | 3.2 | 12.9 | 0.03 | 0.10 | 0.10 | 73 | 1011.0 |
| 20260508144018 | 5 | 286 | 4.8 | 12.9 | 0.03 | 0.10 | 0.10 | 69 | 1011.0 |
| 20260508143518 | 5 | 225 | 3.2 | 12.9 | 0.03 | 0.10 | 0.10 | 70 | 1011.0 |
| 20260508143016 | 5 | 313 | 3.2 | 16.1 | 0.03 | 0.10 | 0.10 | 69 | 1010.8 |
| 20260508142515 | 5 | 302 | 9.7 | 16.1 | 0.03 | 0.10 | 0.10 | 69 | 1010.7 |
| 20260508142016 | 5 | 297 | 9.7 | 16.1 | 0.03 | 0.10 | 0.10 | 69 | 1010.7 |
| 20260508141516 | 5 | 305 | 8.0 | 16.1 | 0.03 | 0.10 | 0.10 | 68 | 1010.6 |
| 20260508141015 | 5 | 263 | 3.2 | 9.7 | 0.00 | 0.08 | 0.08 | 68 | 1010.6 |
| 20260508140515 | 5 | 303 | 3.2 | 9.7 | 0.00 | 0.08 | 0.08 | 69 | 1010.6 |
| 20260508140015 | 5 | 322 | 3.2 | 9.7 | 0.00 | 0.08 | 0.08 | 67 | 1010.6 |
| 20260508135516 | 5 | 305 | 4.8 | 9.7 | 0.00 | 0.08 | 0.08 | 68 | 1010.6 |
| 20260508135015 | 5 | 313 | 1.6 | 9.7 | 0.00 | 0.08 | 0.08 | 69 | 1010.7 |
| 20260508134519 | 5 | 315 | 3.2 | 19.3 | 0.00 | 0.08 | 0.08 | 69 | 1010.6 |
| 20260508134015 | 6 | 313 | 12.9 | 19.3 | 0.00 | 0.08 | 0.08 | 68 | 1010.5 |
| 20260508133515 | 6 | 249 | 4.8 | 14.5 | 0.00 | 0.08 | 0.08 | 68 | 1010.4 |
| 20260508133013 | 6 | 281 | 0.0 | 6.4 | 0.00 | 0.08 | 0.08 | 70 | 1010.3 |
| 20260508132511 | 6 | 218 | 0.0 | 12.9 | 0.00 | 0.08 | 0.08 | 68 | 1010.0 |
| 20260508132010 | 6 | 310 | 6.4 | 16.1 | 0.00 | 0.08 | 0.08 | 68 | 1010.3 |
| 20260508131511 | 6 | 286 | 8.0 | 12.9 | 0.00 | 0.08 | 0.08 | 67 | 1010.3 |
| 20260508131015 | 6 | 303 | 6.4 | 12.9 | 0.00 | 0.08 | 0.08 | 70 | 1010.4 |
| 20260508130506 | 5 | 266 | 3.2 | 16.1 | 0.00 | 0.08 | 0.08 | 73 | 1010.5 |
| 20260508130006 | 5 | 331 | 9.7 | 16.1 | 0.00 | 0.08 | 0.08 | 71 | 1010.4 |
| 20260508125504 | 5 | 304 | 9.7 | 16.1 | 0.00 | 0.08 | 0.08 | 72 | 1010.5 |
| 20260508125003 | 5 | 325 | 8.0 | 17.7 | 0.00 | 0.08 | 0.08 | 72 | 1010.5 |
| 20260508124504 | 5 | 290 | 9.7 | 17.7 | 0.00 | 0.08 | 0.08 | 75 | 1010.4 |
| 20260508124000 | 5 | 302 | 3.2 | 14.5 | 0.00 | 0.08 | 0.08 | 77 | 1010.3 |
| 20260508123600 | 5 | 313 | 3.2 | 12.9 | 0.00 | 0.08 | 0.08 | 77 | 1010.2 |
| 20260508123100 | 5 | 283 | 4.8 | 12.9 | 0.00 | 0.08 | 0.08 | 78 | 1010.2 |
| 20260508122602 | 4 | 309 | 0.0 | 9.7 | 0.00 | 0.08 | 0.08 | 79 | 1010.4 |
| 20260508122059 | 5 | 309 | 3.2 | 12.9 | 0.00 | 0.08 | 0.08 | 79 | 1010.5 |
| 20260508121600 | 5 | 324 | 1.6 | 9.7 | 0.00 | 0.08 | 0.08 | 80 | 1010.6 |
| 20260508121058 | 5 | 202 | 1.6 | 8.0 | 0.00 | 0.08 | 0.08 | 79 | 1010.6 |
| 20260508120556 | 4 | 78 | 1.6 | 6.4 | 0.00 | 0.08 | 0.08 | 79 | 1010.7 |
| 20260508120111 | 4 | 244 | 0.0 | 6.4 | 0.00 | 0.08 | 0.08 | 81 | 1010.6 |
| 20260508115558 | 4 | 242 | 1.6 | 6.4 | 0.00 | 0.08 | 0.08 | 81 | 1010.6 |
| 20260508115054 | 4 | 231 | 1.6 | 8.0 | 0.00 | 0.08 | 0.08 | 82 | 1010.7 |
| 20260508114559 | 3 | 230 | 3.2 | 8.0 | 0.00 | 0.08 | 0.08 | 82 | 1010.6 |
| 20260508114049 | 3 | 251 | 0.0 | 4.8 | 0.00 | 0.08 | 0.08 | 84 | 1010.7 |
| 20260508113548 | 3 | 221 | 0.0 | 4.8 | 0.00 | 0.08 | 0.08 | 85 | 1010.6 |
| 20260508113046 | 3 | 225 | 0.0 | 4.8 | 0.00 | 0.08 | 0.08 | 85 | 1010.5 |
| 20260508112546 | 3 | 223 | 1.6 | 6.4 | 0.00 | 0.08 | 0.08 | 86 | 1010.3 |
| 20260508112042 | 2 | 222 | 0.0 | 9.7 | 0.00 | 0.08 | 0.08 | 86 | 1010.3 |
| 20260508111543 | 2 | 196 | 3.2 | 9.7 | 0.00 | 0.08 | 0.08 | 87 | 1010.6 |
| 20260508111040 | 2 | 200 | 3.2 | 6.4 | 0.00 | 0.08 | 0.08 | 87 | 1010.8 |
| 20260508110538 | 2 | 196 | 1.6 | 6.4 | 0.00 | 0.08 | 0.08 | 88 | 1010.8 |
| 20260508110037 | 2 | 214 | 0.0 | 6.4 | 0.00 | 0.08 | 0.08 | 89 | 1010.6 |
| 20260508105535 | 2 | 232 | 0.0 | 6.4 | 0.00 | 0.08 | 0.08 | 89 | 1010.5 |
| 20260508105035 | 2 | 227 | 0.0 | 6.4 | 0.00 | 0.08 | 0.08 | 89 | 1010.5 |
| 20260508104532 | 2 | 222 | 1.6 | 4.8 | 0.00 | 0.08 | 0.08 | 90 | 1010.5 |
| 20260508104031 | 1 | 229 | 0.0 | 3.2 | 0.00 | 0.08 | 0.08 | 90 | 1010.3 |
| 20260508103530 | 1 | 224 | 0.0 | 4.8 | 0.00 | 0.08 | 0.08 | 90 | 1010.3 |
| 20260508103041 | 1 | 281 | 0.0 | 4.8 | 0.00 | 0.08 | 0.08 | 90 | 1010.2 |
| 20260508102531 | 1 | 205 | 0.0 | 3.2 | 0.00 | 0.08 | 0.08 | 90 | 1010.1 |
| 20260508102033 | 1 | 205 | 0.0 | 3.2 | 0.00 | 0.08 | 0.08 | 90 | 1010.0 |
| 20260508101528 | 1 | 204 | 0.0 | 0.0 | 0.03 | 0.08 | 0.08 | 90 | 1009.9 |
| 20260508101030 | 1 | 204 | 0.0 | 0.0 | 0.03 | 0.08 | 0.08 | 89 | 1009.8 |
| 20260508100527 | 1 | 203 | 0.0 | 0.0 | 0.03 | 0.08 | 0.08 | 89 | 1009.7 |
| 20260508100032 | 1 | 203 | 0.0 | 0.0 | 0.03 | 0.08 | 0.08 | 89 | 1009.6 |
| 20260508095530 | 1 | 203 | 0.0 | 0.0 | 0.03 | 0.08 | 0.08 | 89 | 1009.7 |
| 20260508095026 | 1 | 203 | 0.0 | 3.2 | 0.03 | 0.08 | 0.08 | 89 | 1009.7 |
| 20260508094525 | 1 | 203 | 0.0 | 4.8 | 0.03 | 0.08 | 0.08 | 89 | 1009.7 |
| 20260508094025 | 1 | 203 | 1.6 | 4.8 | 0.05 | 0.08 | 0.08 | 89 | 1009.8 |
| 20260508093526 | 1 | 188 | 1.6 | 8.0 | 0.05 | 0.08 | 0.08 | 89 | 1009.8 |
| 20260508093034 | 1 | 217 | 1.6 | 9.7 | 0.05 | 0.08 | 0.08 | 89 | 1009.9 |
| 20260508092526 | 1 | 222 | 3.2 | 9.7 | 0.05 | 0.08 | 0.08 | 89 | 1010.0 |
| 20260508092025 | 1 | 196 | 1.6 | 4.8 | 0.05 | 0.08 | 0.08 | 88 | 1010.0 |
| 20260508091526 | 1 | 191 | 0.0 | 3.2 | 0.05 | 0.05 | 0.05 | 88 | 1010.1 |
| 20260508091024 | 1 | 188 | 0.0 | 3.2 | 0.05 | 0.05 | 0.05 | 88 | 1010.0 |
| 20260508090524 | 1 | 188 | 0.0 | 4.8 | 0.05 | 0.05 | 0.05 | 88 | 1009.9 |
| 20260508090026 | 1 | 223 | 0.0 | 6.4 | 0.05 | 0.05 | 0.05 | 87 | 1010.0 |
| 20260508085522 | 1 | 291 | 1.6 | 6.4 | 0.05 | 0.05 | 0.05 | 87 | 1010.0 |
| 20260508085022 | 1 | 342 | 3.2 | 14.5 | 0.05 | 0.05 | 0.05 | 86 | 1010.0 |
| 20260508084521 | 1 | 321 | 6.4 | 16.1 | 0.03 | 0.03 | 0.03 | 86 | 1010.1 |
| 20260508084019 | 1 | 307 | 9.7 | 16.1 | 0.03 | 0.03 | 0.03 | 85 | 1010.1 |
| 20260508083519 | 1 | 314 | 4.8 | 12.9 | 0.03 | 0.03 | 0.03 | 85 | 1010.0 |
| 20260508083018 | 2 | 308 | 6.4 | 17.7 | 0.03 | 0.03 | 0.03 | 83 | 1010.1 |
| 20260508082518 | 2 | 313 | 12.9 | 17.7 | 0.03 | 0.03 | 0.03 | 82 | 1010.0 |
| 20260508082017 | 2 | 317 | 9.7 | 17.7 | 0.03 | 0.03 | 0.03 | 80 | 1009.9 |
| 20260508081515 | 3 | 281 | 8.0 | 20.9 | 0.00 | 0.00 | 0.00 | 78 | 1009.9 |
| 20260508081014 | 3 | 294 | 8.0 | 27.4 | 0.00 | 0.00 | 0.00 | 76 | 1009.7 |
| 20260508080513 | 3 | 269 | 14.5 | 27.4 | 0.00 | 0.00 | 0.00 | 74 | 1009.7 |
| 20260508080012 | 3 | 310 | 4.8 | 12.9 | 0.00 | 0.00 | 0.00 | 71 | 1009.6 |
| 20260508075511 | 3 | 287 | 1.6 | 6.4 | 0.00 | 0.00 | 0.00 | 69 | 1009.5 |
| 20260508075009 | 3 | 270 | 0.0 | 6.4 | 0.00 | 0.00 | 0.00 | 68 | 1009.5 |
| 20260508074509 | 3 | 272 | 0.0 | 4.8 | 0.00 | 0.00 | 0.00 | 67 | 1009.4 |
| 20260508074009 | 3 | 254 | 1.6 | 4.8 | 0.00 | 0.00 | 0.00 | 67 | 1009.4 |
| 20260508073509 | 3 | 154 | 0.0 | 3.2 | 0.00 | 0.00 | 0.00 | 66 | 1009.4 |
| 20260508073008 | 3 | 154 | 0.0 | 4.8 | 0.00 | 0.00 | 0.00 | 66 | 1009.2 |
| 20260508072507 | 3 | 153 | 0.0 | 4.8 | 0.00 | 0.00 | 0.00 | 65 | 1009.3 |
| 20260508072009 | 3 | 151 | 1.6 | 4.8 | 0.00 | 0.00 | 0.00 | 64 | 1009.3 |
| 20260508071508 | 3 | 144 | 0.0 | 4.8 | 0.00 | 0.00 | 0.00 | 64 | 1009.2 |
| 20260508071005 | 3 | 123 | 0.0 | 4.8 | 0.00 | 0.00 | 0.00 | 63 | 1009.2 |
| 20260508070509 | 3 | 229 | 0.0 | 4.8 | 0.00 | 0.00 | 0.00 | 63 | 1009.1 |
| 20260508070005 | 3 | 230 | 0.0 | 4.8 | 0.00 | 0.00 | 0.00 | 64 | 1009.2 |
| 20260508065506 | 2 | 238 | 0.0 | 1.6 | 0.00 | 0.00 | 0.00 | 63 | 1009.1 |
| 20260508065006 | 2 | 238 | 0.0 | 0.0 | 0.00 | 0.00 | 0.00 | 63 | 1009.0 |
| 20260508064505 | 2 | 238 | 0.0 | 0.0 | 0.00 | 0.00 | 0.00 | 63 | 1008.8 |
| 20260508064007 | 3 | 238 | 0.0 | 0.0 | 0.00 | 0.00 | 0.00 | 63 | 1008.8 |
| 20260508063504 | 3 | 238 | 0.0 | 0.0 | 0.00 | 0.00 | 0.00 | 63 | 1008.8 |
| 20260508063003 | 3 | 238 | 0.0 | 0.0 | 0.00 | 0.00 | 0.00 | 62 | 1008.8 |
| 20260508062502 | 3 | 238 | 0.0 | 0.0 | 0.00 | 0.00 | 0.00 | 62 | 1008.8 |
| 20260508062002 | 3 | 238 | 0.0 | 1.6 | 0.00 | 0.00 | 0.00 | 62 | 1008.8 |
| 20260508061501 | 3 | 238 | 0.0 | 1.6 | 0.00 | 0.00 | 0.00 | 62 | 1008.8 |
| 20260508061001 | 3 | 238 | 0.0 | 1.6 | 0.00 | 0.00 | 0.00 | 62 | 1008.9 |
| 20260508060601 | 3 | 238 | 0.0 | 1.6 | 0.00 | 0.00 | 0.00 | 61 | 1009.0 |
| 20260508060130 | 3 | 238 | 0.0 | 3.2 | 0.00 | 0.00 | 0.00 | 61 | 1009.0 |
| 20260508055559 | 3 | 238 | 0.0 | 3.2 | 0.00 | 0.00 | 0.00 | 61 | 1009.0 |
| 20260508055059 | 3 | 248 | 0.0 | 3.2 | 0.00 | 0.00 | 0.00 | 61 | 1009.1 |
| 20260508054641 | 3 | 248 | 0.0 | 4.8 | 0.00 | 0.00 | 0.00 | 61 | 1009.2 |
| 20260508054059 | 2 | 248 | 0.0 | 4.8 | 0.00 | 0.00 | 0.00 | 61 | 1009.2 |
| 20260508053557 | 2 | 249 | 0.0 | 6.4 | 0.00 | 0.00 | 0.00 | 61 | 1009.1 |
| 20260508053057 | 2 | 249 | 0.0 | 6.4 | 0.00 | 0.00 | 0.00 | 61 | 1009.1 |
| 20260508052556 | 2 | 234 | 0.0 | 4.8 | 0.00 | 0.00 | 0.00 | 61 | 1009.3 |
| 20260508052055 | 2 | 236 | 0.0 | 3.2 | 0.00 | 0.00 | 0.00 | 62 | 1009.3 |
| 20260508051555 | 2 | 236 | 0.0 | 1.6 | 0.00 | 0.00 | 0.00 | 62 | 1009.3 |
| 20260508051055 | 2 | 235 | 0.0 | 1.6 | 0.00 | 0.00 | 0.00 | 63 | 1009.3 |
| 20260508050554 | 2 | 235 | 0.0 | 4.8 | 0.00 | 0.00 | 0.00 | 62 | 1009.3 |
| 20260508050054 | 2 | 235 | 1.6 | 4.8 | 0.00 | 0.00 | 0.00 | 62 | 1009.4 |
| 20260508045554 | 2 | 265 | 0.0 | 3.2 | 0.00 | 0.00 | 0.00 | 63 | 1009.4 |
| 20260508045052 | 2 | 223 | 0.0 | 4.8 | 0.00 | 0.00 | 0.00 | 64 | 1009.3 |
| 20260508044552 | 2 | 222 | 0.0 | 4.8 | 0.00 | 0.00 | 0.00 | 64 | 1009.3 |
| 20260508044052 | 2 | 247 | 0.0 | 3.2 | 0.00 | 0.00 | 0.00 | 65 | 1009.3 |
| 20260508043550 | 2 | 247 | 0.0 | 3.2 | 0.00 | 0.00 | 0.00 | 66 | 1009.4 |
| 20260508043057 | 2 | 248 | 0.0 | 1.6 | 0.00 | 0.00 | 0.00 | 66 | 1009.4 |
| 20260508042549 | 2 | 247 | 0.0 | 1.6 | 0.00 | 0.00 | 0.00 | 66 | 1009.3 |
| 20260508042045 | 2 | 247 | 0.0 | 0.0 | 0.00 | 0.00 | 0.00 | 66 | 1009.3 |
| 20260508041545 | 2 | 248 | 0.0 | 0.0 | 0.00 | 0.00 | 0.00 | 66 | 1009.3 |
| 20260508041044 | 1 | 248 | 0.0 | 0.0 | 0.00 | 0.00 | 0.00 | 66 | 1009.2 |
| 20260508040544 | 1 | 248 | 0.0 | 0.0 | 0.00 | 0.00 | 0.00 | 66 | 1009.2 |
| 20260508040043 | 1 | 248 | 0.0 | 0.0 | 0.00 | 0.00 | 0.00 | 68 | 1009.2 |
| 20260508035542 | 1 | 248 | 0.0 | 1.6 | 0.00 | 0.00 | 0.00 | 68 | 1009.2 |
| 20260508035042 | 1 | 248 | 0.0 | 1.6 | 0.00 | 0.00 | 0.00 | 69 | 1009.1 |
| 20260508034548 | 1 | 248 | 0.0 | 0.0 | 0.00 | 0.00 | 0.00 | 70 | 1009.1 |
| 20260508034041 | 1 | 248 | 0.0 | 0.0 | 0.00 | 0.00 | 0.00 | 72 | 1009.0 |
| 20260508033543 | 2 | 248 | 0.0 | 0.0 | 0.00 | 0.00 | 0.00 | 71 | 1008.8 |
| 20260508033042 | 2 | 248 | 0.0 | 0.0 | 0.00 | 0.00 | 0.00 | 68 | 1008.7 |
| 20260508032544 | 2 | 248 | 0.0 | 0.0 | 0.00 | 0.00 | 0.00 | 67 | 1008.8 |
| 20260508032040 | 2 | 248 | 0.0 | 0.0 | 0.00 | 0.00 | 0.00 | 65 | 1008.7 |
| 20260508031543 | 2 | 248 | 0.0 | 0.0 | 0.00 | 0.00 | 0.00 | 65 | 1008.6 |
| 20260508031040 | 2 | 248 | 0.0 | 0.0 | 0.00 | 0.00 | 0.00 | 65 | 1008.7 |
| 20260508030541 | 2 | 248 | 0.0 | 3.2 | 0.00 | 0.00 | 0.00 | 64 | 1008.7 |
| 20260508030044 | 2 | 248 | 0.0 | 3.2 | 0.00 | 0.00 | 0.00 | 64 | 1008.7 |
| 20260508025544 | 2 | 248 | 0.0 | 3.2 | 0.00 | 0.00 | 0.00 | 63 | 1008.7 |
| 20260508025040 | 2 | 248 | 0.0 | 3.2 | 0.00 | 0.00 | 0.00 | 62 | 1008.7 |
| 20260508024544 | 2 | 248 | 1.6 | 3.2 | 0.00 | 0.00 | 0.00 | 61 | 1008.8 |
| 20260508024040 | 3 | 248 | 0.0 | 3.2 | 0.00 | 0.00 | 0.00 | 60 | 1008.8 |
| 20260508023540 | 3 | 249 | 0.0 | 4.8 | 0.00 | 0.00 | 0.00 | 59 | 1009.0 |
| 20260508023039 | 3 | 249 | 0.0 | 4.8 | 0.00 | 0.00 | 0.00 | 60 | 1009.0 |
| 20260508022542 | 3 | 302 | 0.0 | 3.2 | 0.00 | 0.00 | 0.00 | 58 | 1009.0 |
| 20260508022039 | 3 | 302 | 0.0 | 3.2 | 0.00 | 0.00 | 0.00 | 57 | 1009.0 |
| 20260508021539 | 4 | 302 | 0.0 | 4.8 | 0.00 | 0.00 | 0.00 | 58 | 1009.0 |
| 20260508021041 | 4 | 302 | 0.0 | 4.8 | 0.00 | 0.00 | 0.00 | 56 | 1009.1 |
| 20260508020538 | 4 | 299 | 0.0 | 1.6 | 0.00 | 0.00 | 0.00 | 55 | 1009.1 |
| 20260508020038 | 5 | 299 | 0.0 | 3.2 | 0.00 | 0.00 | 0.00 | 53 | 1009.1 |
| 20260508015538 | 5 | 299 | 0.0 | 3.2 | 0.00 | 0.03 | 0.00 | 50 | 1009.1 |
| 20260508015038 | 5 | 299 | 0.0 | 9.7 | 0.00 | 0.03 | 0.00 | 49 | 1009.2 |
| 20260508014540 | 5 | 299 | 1.6 | 9.7 | 0.00 | 0.03 | 0.00 | 48 | 1009.1 |
| 20260508014037 | 5 | 280 | 0.0 | 4.8 | 0.00 | 0.03 | 0.00 | 48 | 1009.1 |
| 20260508013538 | 5 | 290 | 0.0 | 4.8 | 0.00 | 0.03 | 0.00 | 47 | 1009.1 |
| 20260508013037 | 5 | 292 | 1.6 | 4.8 | 0.00 | 0.03 | 0.00 | 47 | 1009.1 |
| 20260508012537 | 5 | 286 | 3.2 | 4.8 | 0.00 | 0.03 | 0.00 | 47 | 1009.1 |
| 20260508012037 | 5 | 348 | 1.6 | 8.0 | 0.00 | 0.03 | 0.00 | 47 | 1009.1 |
| 20260508011537 | 5 | 294 | 1.6 | 8.0 | 0.00 | 0.03 | 0.00 | 47 | 1009.1 |
| 20260508011036 | 5 | 289 | 1.6 | 6.4 | 0.00 | 0.03 | 0.00 | 45 | 1009.1 |
| 20260508010536 | 5 | 286 | 1.6 | 8.0 | 0.00 | 0.03 | 0.00 | 45 | 1009.0 |
| 20260508010047 | 5 | 312 | 3.2 | 8.0 | 0.00 | 0.03 | 0.00 | 44 | 1008.8 |
| 20260508005536 | 5 | 301 | 1.6 | 6.4 | 0.00 | 0.03 | 0.00 | 45 | 1008.8 |
| 20260508005039 | 5 | 300 | 1.6 | 4.8 | 0.00 | 0.03 | 0.00 | 45 | 1008.8 |
| 20260508004535 | 5 | 294 | 1.6 | 9.7 | 0.00 | 0.03 | 0.00 | 44 | 1008.7 |
| 20260508004036 | 5 | 300 | 3.2 | 14.5 | 0.00 | 0.03 | 0.00 | 43 | 1008.6 |
| 20260508003535 | 6 | 297 | 3.2 | 8.0 | 0.00 | 0.03 | 0.00 | 43 | 1008.6 |
| 20260508003035 | 6 | 302 | 3.2 | 8.0 | 0.00 | 0.03 | 0.00 | 43 | 1008.5 |
| 20260508002536 | 6 | 305 | 3.2 | 11.3 | 0.00 | 0.03 | 0.00 | 43 | 1008.3 |
| 20260508002034 | 6 | 309 | 3.2 | 11.3 | 0.00 | 0.03 | 0.00 | 41 | 1008.3 |
| 20260508001633 | 6 | 289 | 4.8 | 11.3 | 0.00 | 0.03 | 0.00 | 41 | 1008.2 |
| 20260508001033 | 6 | 279 | 6.4 | 12.9 | 0.00 | 0.03 | 0.00 | 40 | 1008.3 |
| 20260508000536 | 6 | 283 | 6.4 | 12.9 | 0.00 | 0.03 | 0.00 | 39 | 1008.2 |
| 20260508000033 | 6 | 270 | 6.4 | 19.3 | 0.00 | 0.03 | 0.00 | 38 | 1008.2 |
| 20260507235533 | 7 | 287 | 11.3 | 19.3 | 0.00 | 0.03 | 0.00 | 38 | 1008.2 |
| 20260507235033 | 7 | 289 | 9.7 | 19.3 | 0.00 | 0.03 | 0.00 | 38 | 1008.1 |
| 20260507234533 | 7 | 288 | 8.0 | 19.3 | 0.00 | 0.03 | 0.00 | 39 | 1008.0 |
| 20260507234032 | 7 | 303 | 8.0 | 19.3 | 0.00 | 0.03 | 0.00 | 37 | 1008.1 |
| 20260507233532 | 7 | 301 | 8.0 | 17.7 | 0.00 | 0.03 | 0.00 | 36 | 1008.1 |
| 20260507233033 | 7 | 267 | 8.0 | 20.9 | 0.00 | 0.03 | 0.00 | 37 | 1008.1 |
| 20260507232531 | 7 | 289 | 12.9 | 24.1 | 0.00 | 0.03 | 0.00 | 36 | 1008.1 |
| 20260507232032 | 7 | 285 | 11.3 | 25.7 | 0.00 | 0.03 | 0.00 | 36 | 1008.2 |
| 20260507231539 | 7 | 324 | 16.1 | 30.6 | 0.00 | 0.03 | 0.00 | 36 | 1008.2 |
| 20260507231037 | 7 | 294 | 17.7 | 30.6 | 0.00 | 0.03 | 0.00 | 35 | 1008.2 |
| 20260507230532 | 8 | 313 | 12.9 | 25.7 | 0.00 | 0.03 | 0.00 | 36 | 1008.2 |
| 20260507230039 | 8 | 294 | 14.5 | 27.4 | 0.00 | 0.03 | 0.00 | 33 | 1008.1 |
| 20260507225531 | 8 | 298 | 12.9 | 27.4 | 0.00 | 0.03 | 0.00 | 35 | 1008.1 |
| 20260507225031 | 8 | 278 | 12.9 | 33.8 | 0.00 | 0.03 | 0.00 | 33 | 1008.2 |
| 20260507224532 | 8 | 283 | 16.1 | 30.6 | 0.00 | 0.03 | 0.00 | 32 | 1008.2 |
| 20260507224030 | 8 | 298 | 14.5 | 27.4 | 0.00 | 0.03 | 0.00 | 34 | 1008.0 |
| 20260507223529 | 8 | 292 | 17.7 | 27.4 | 0.00 | 0.03 | 0.00 | 33 | 1008.0 |
| 20260507223029 | 8 | 318 | 14.5 | 27.4 | 0.00 | 0.03 | 0.00 | 35 | 1008.1 |
| 20260507222528 | 8 | 312 | 16.1 | 30.6 | 0.00 | 0.03 | 0.00 | 34 | 1008.1 |
| 20260507222028 | 8 | 296 | 14.5 | 30.6 | 0.00 | 0.03 | 0.00 | 32 | 1008.2 |
| 20260507221528 | 8 | 322 | 11.3 | 29.0 | 0.00 | 0.03 | 0.00 | 34 | 1008.2 |
| 20260507221028 | 8 | 300 | 16.1 | 33.8 | 0.00 | 0.03 | 0.00 | 32 | 1008.2 |
| 20260507220527 | 8 | 312 | 19.3 | 33.8 | 0.00 | 0.03 | 0.00 | 30 | 1008.2 |
| 20260507220027 | 8 | 298 | 17.7 | 30.6 | 0.00 | 0.03 | 0.00 | 32 | 1008.3 |
| 20260507215527 | 8 | 287 | 16.1 | 32.2 | 0.00 | 0.05 | 0.00 | 34 | 1008.3 |
| 20260507215026 | 8 | 309 | 17.7 | 33.8 | 0.00 | 0.05 | 0.00 | 33 | 1008.4 |
| 20260507214527 | 9 | 335 | 20.9 | 33.8 | 0.00 | 0.05 | 0.00 | 34 | 1008.4 |
| 20260507214026 | 9 | 312 | 16.1 | 29.0 | 0.00 | 0.05 | 0.00 | 33 | 1008.4 |
| 20260507213532 | 9 | 306 | 17.7 | 29.0 | 0.00 | 0.05 | 0.00 | 34 | 1008.4 |
| 20260507213026 | 9 | 223 | 11.3 | 27.4 | 0.00 | 0.05 | 0.00 | 36 | 1008.4 |
| 20260507212524 | 9 | 285 | 14.5 | 29.0 | 0.00 | 0.05 | 0.00 | 36 | 1008.3 |
| 20260507212024 | 9 | 329 | 12.9 | 33.8 | 0.00 | 0.05 | 0.00 | 41 | 1008.2 |
| 20260507211535 | 9 | 287 | 14.5 | 30.6 | 0.00 | 0.05 | 0.00 | 39 | 1008.3 |
| 20260507211023 | 9 | 275 | 16.1 | 32.2 | 0.00 | 0.05 | 0.00 | 39 | 1008.3 |
| 20260507210523 | 9 | 289 | 16.1 | 32.2 | 0.00 | 0.05 | 0.00 | 38 | 1008.3 |
| 20260507210023 | 9 | 292 | 11.3 | 38.6 | 0.00 | 0.05 | 0.00 | 40 | 1008.3 |
| 20260507205523 | 9 | 289 | 19.3 | 38.6 | 0.00 | 0.10 | 0.00 | 38 | 1008.4 |
| 20260507205022 | 9 | 300 | 14.5 | 33.8 | 0.00 | 0.10 | 0.00 | 41 | 1008.4 |
| 20260507204524 | 9 | 284 | 17.7 | 32.2 | 0.00 | 0.10 | 0.00 | 39 | 1008.4 |
| 20260507204022 | 9 | 284 | 19.3 | 35.4 | 0.00 | 0.10 | 0.00 | 42 | 1008.4 |
| 20260507203523 | 9 | 327 | 22.5 | 35.4 | 0.00 | 0.10 | 0.00 | 39 | 1008.4 |
| 20260507203027 | 9 | 311 | 16.1 | 27.4 | 0.00 | 0.10 | 0.00 | 39 | 1008.4 |
| 20260507202522 | 9 | 296 | 16.1 | 30.6 | 0.00 | 0.10 | 0.00 | 40 | 1008.4 |
| 20260507202020 | 8 | 308 | 19.3 | 33.8 | 0.00 | 0.10 | 0.00 | 40 | 1008.5 |
| 20260507201520 | 9 | 287 | 17.7 | 35.4 | 0.00 | 0.10 | 0.00 | 39 | 1008.6 |
| 20260507201020 | 10 | 307 | 22.5 | 35.4 | 0.00 | 0.10 | 0.00 | 39 | 1008.5 |
| 20260507200520 | 9 | 310 | 17.7 | 32.2 | 0.00 | 0.10 | 0.00 | 40 | 1008.4 |
| 20260507200023 | 9 | 247 | 11.3 | 35.4 | 0.00 | 0.10 | 0.00 | 43 | 1008.5 |
| 20260507195520 | 9 | 331 | 22.5 | 35.4 | 0.00 | 0.15 | 0.00 | 42 | 1008.6 |
| 20260507195018 | 9 | 319 | 14.5 | 29.0 | 0.00 | 0.15 | 0.00 | 39 | 1008.6 |
| 20260507194518 | 9 | 294 | 17.7 | 30.6 | 0.00 | 0.15 | 0.00 | 38 | 1008.7 |
| 20260507194017 | 9 | 267 | 9.7 | 35.4 | 0.00 | 0.15 | 0.00 | 39 | 1008.7 |
| 20260507193517 | 10 | 311 | 20.9 | 35.4 | 0.00 | 0.15 | 0.00 | 41 | 1008.7 |
| 20260507193017 | 10 | 320 | 11.3 | 29.0 | 0.00 | 0.15 | 0.00 | 40 | 1008.8 |
| 20260507192515 | 9 | 321 | 16.1 | 25.7 | 0.00 | 0.15 | 0.00 | 43 | 1008.8 |
| 20260507192015 | 9 | 315 | 16.1 | 32.2 | 0.00 | 0.15 | 0.00 | 40 | 1008.9 |
| 20260507191515 | 10 | 315 | 19.3 | 32.2 | 0.00 | 0.15 | 0.00 | 40 | 1008.8 |
| 20260507191014 | 9 | 261 | 16.1 | 32.2 | 0.00 | 0.15 | 0.00 | 38 | 1009.0 |
| 20260507190514 | 9 | 286 | 17.7 | 30.6 | 0.00 | 0.15 | 0.00 | 44 | 1009.1 |
| 20260507190015 | 9 | 280 | 20.9 | 30.6 | 0.00 | 0.15 | 0.00 | 43 | 1009.0 |
| 20260507185514 | 9 | 301 | 16.1 | 30.6 | 0.00 | 0.18 | 0.00 | 44 | 1009.1 |
| 20260507185014 | 9 | 326 | 16.1 | 30.6 | 0.00 | 0.18 | 0.00 | 41 | 1009.1 |
| 20260507184514 | 9 | 296 | 14.5 | 32.2 | 0.00 | 0.18 | 0.00 | 46 | 1009.1 |
| 20260507184013 | 9 | 297 | 14.5 | 40.2 | 0.00 | 0.18 | 0.00 | 46 | 1009.2 |
| 20260507183519 | 9 | 303 | 17.7 | 33.8 | 0.00 | 0.18 | 0.00 | 47 | 1009.2 |
| 20260507183021 | 8 | 289 | 17.7 | 33.8 | 0.00 | 0.18 | 0.00 | 44 | 1009.4 |
| 20260507182510 | 8 | 240 | 14.5 | 35.4 | 0.00 | 0.18 | 0.00 | 47 | 1009.4 |
| 20260507182010 | 8 | 318 | 17.7 | 35.4 | 0.00 | 0.18 | 0.00 | 46 | 1009.5 |
| 20260507181510 | 8 | 301 | 17.7 | 33.8 | 0.00 | 0.18 | 0.00 | 47 | 1009.4 |
| 20260507181009 | 8 | 279 | 14.5 | 33.8 | 0.00 | 0.18 | 0.00 | 48 | 1009.5 |
| 20260507180509 | 8 | 274 | 3.2 | 32.2 | 0.00 | 0.18 | 0.00 | 48 | 1009.6 |
| 20260507180009 | 8 | 241 | 17.7 | 32.2 | 0.00 | 0.18 | 0.00 | 56 | 1009.6 |
| 20260507175511 | 8 | 298 | 11.3 | 29.0 | 0.00 | 0.18 | 0.00 | 56 | 1009.7 |
| 20260507175009 | 8 | 310 | 19.3 | 33.8 | 0.00 | 0.18 | 0.00 | 54 | 1009.7 |
| 20260507174511 | 8 | 319 | 20.9 | 33.8 | 0.00 | 0.18 | 0.00 | 54 | 1009.6 |
| 20260507174008 | 7 | 271 | 16.1 | 24.1 | 0.00 | 0.18 | 0.00 | 51 | 1009.7 |
| 20260507173508 | 8 | 286 | 9.7 | 30.6 | 0.00 | 0.18 | 0.00 | 55 | 1009.7 |
| 20260507173008 | 8 | 307 | 19.3 | 30.6 | 0.00 | 0.18 | 0.00 | 52 | 1009.7 |
| 20260507172507 | 8 | 303 | 6.4 | 32.2 | 0.00 | 0.18 | 0.00 | 53 | 1009.8 |
| 20260507172005 | 8 | 287 | 17.7 | 32.2 | 0.00 | 0.18 | 0.00 | 56 | 1009.9 |
| 20260507171505 | 7 | 293 | 17.7 | 27.4 | 0.00 | 0.18 | 0.00 | 52 | 1009.9 |
| 20260507171006 | 8 | 267 | 14.5 | 27.4 | 0.00 | 0.18 | 0.00 | 54 | 1009.9 |